ISS (ZARYA) 1 25544U 98067A 26150.13051462 .00013825 00000+0 25414-3 0 9993 2 25544 51.6337 29.4904 0007252 113.3793 246.7959 15.49488485568959 POISK 1 36086U 09060A 26150.13051462 .00013825 00000+0 25414-3 0 9991 2 36086 51.6337 29.4904 0007252 113.3793 246.7959 15.49488485568930 CSS (TIANHE) 1 48274U 21035A 26150.18439889 .00029736 00000+0 35922-3 0 9990 2 48274 41.4692 71.4980 0010638 307.4359 52.5511 15.60008202290353 ISS (NAUKA) 1 49044U 21066A 26150.13051462 .00013825 00000+0 25414-3 0 9999 2 49044 51.6337 29.4904 0007252 113.3793 246.7959 15.49488485568972 FREGAT DEB 1 49271U 11037PF 26149.13709745 .00019203 00000+0 31185-1 0 9996 2 49271 51.6260 59.1348 0916700 241.0120 109.5864 12.41815670222686 CSS (WENTIAN) 1 53239U 22085A 26149.92832235 .00026428 00000+0 32007-3 0 9991 2 53239 41.4693 73.0539 0010653 305.7656 54.2192 15.59989407288238 CSS (MENGTIAN) 1 54216U 22143A 26150.18439889 .00029736 00000+0 35922-3 0 9994 2 54216 41.4692 71.4980 0010638 307.4359 52.5511 15.60008202290413 HRC MONOBLOCK CAMERA 1 66052U 98067XR 26149.01023150 .00077350 00000+0 60108-3 0 9992 2 66052 51.6265 17.4673 0002935 120.6840 239.4447 15.71076992 34988 SZ-21 MODULE 1 66515U 25246C 26150.15143303 .00054847 00000+0 36084-3 0 9997 2 66515 41.4747 59.5223 0006603 245.5411 114.4744 15.74761255 30893 SOYUZ-MS 28 1 66664U 25275A 26150.13051462 .00013825 00000+0 25414-3 0 9992 2 66664 51.6337 29.4904 0007252 113.3793 246.7959 15.49488485569059 DUPLEX 1 66906U 98067XS 26150.13748341 .00056449 00000+0 65615-3 0 9995 2 66906 51.6293 20.5349 0004552 120.2472 239.8973 15.61163629 27833 ISS OBJECT XY 1 66912U 98067XY 26148.94566392 .00288435 00000+0 11725-2 0 9996 2 66912 51.6227 15.4700 0004712 191.8491 168.2402 15.84855271 27786 KNACKSAT-2 1 67683U 98067XZ 26148.92893911 .00055397 00000+0 72270-3 0 9992 2 67683 51.6306 31.2154 0011550 132.0548 228.1429 15.58069439 17279 CORAL 1 67684U 98067YA 26148.88572086 .00179461 00000+0 14468-2 0 9998 2 67684 51.6266 27.1529 0012180 140.2856 219.9035 15.69710628 17320 GXIBA-1 1 67685U 98067YB 26149.07705711 .00065146 00000+0 80725-3 0 9998 2 67685 51.6298 29.9522 0013058 131.3039 228.9080 15.59341410 17304 UITMSAT-2 1 67686U 98067YC 26150.01985609 .00086579 00000+0 96636-3 0 9992 2 67686 51.6287 24.2490 0009104 122.1942 237.9936 15.61998001 17467 LEOPARD 1 67687U 98067YD 26149.92967441 .00064841 00000+0 81676-3 0 9991 2 67687 51.6315 25.9070 0009057 117.3192 242.8724 15.58963085 17350 HMU-SAT2 1 67688U 98067YE 26149.67338617 .00069886 00000+0 82104-3 0 9992 2 67688 51.6299 26.4421 0009084 118.2972 241.8939 15.60761301 17328 CREW DRAGON 12 1 67796U 26031A 26150.13051462 .00013825 00000+0 25414-3 0 9990 2 67796 51.6337 29.4904 0007252 113.3793 246.7959 15.49488485569012 PROGRESS-MS 33 1 68319U 26058A 26150.13051462 .00013825 00000+0 25414-3 0 9991 2 68319 51.6337 29.4904 0007252 113.3793 246.7959 15.49488485569092 CYGNUS NG-24 1 68689U 26079A 26149.87253488 .00013605 00000+0 25029-3 0 9993 2 68689 51.6336 30.7676 0007282 112.5035 247.6725 15.49480717569096 PROGRESS-MS 34 1 68837U 26093A 26149.87253488 .00013605 00000+0 25029-3 0 9994 2 68837 51.6336 30.7676 0007282 112.5035 247.6725 15.49480717569136 TIANZHOU-10 1 69049U 26102A 26149.92832235 .00026428 00000+0 32007-3 0 9991 2 69049 41.4693 73.0539 0010653 305.7656 54.2192 15.59989407 3015 DRAGON CRS-34 1 69103U 26107A 26150.13051462 .00013825 00000+0 25414-3 0 9998 2 69103 51.6337 29.4904 0007252 113.3793 246.7959 15.49488485569218 SHENZHOU-23 1 69180U 26113A 26149.92832235 .00026428 00000+0 32007-3 0 9999 2 69180 41.4693 73.0539 0010653 305.7656 54.2192 15.59989407290053